TimeCST,TemperatureF,Dew PointF,Humidity,Sea Level PressureIn,VisibilityMPH,Wind Direction,Wind SpeedMPH,Gust SpeedMPH,PrecipitationIn,Events,Conditions,WindDirDegrees,DateUTC
12:53 AM,30.0,24.1,79,30.37,10.0,Calm,Calm,-,N/A,,Clear,0,2013-12-26 06:53:00
1:53 AM,28.0,23.0,81,30.38,7.0,Calm,Calm,-,N/A,,Clear,0,2013-12-26 07:53:00
2:53 AM,28.0,23.0,81,30.39,6.0,Calm,Calm,-,N/A,,Haze,0,2013-12-26 08:53:00
3:53 AM,30.0,24.1,79,30.39,9.0,West,5.8,-,N/A,,Clear,280,2013-12-26 09:53:00
4:53 AM,28.9,23.0,78,30.40,8.0,West,3.5,-,N/A,,Clear,270,2013-12-26 10:53:00
5:53 AM,27.0,21.0,78,30.41,5.0,Calm,Calm,-,N/A,,Haze,0,2013-12-26 11:53:00
6:53 AM,25.0,19.9,81,30.42,6.0,Calm,Calm,-,N/A,,Haze,0,2013-12-26 12:53:00
7:53 AM,26.1,21.9,84,30.44,5.0,SSE,3.5,-,N/A,,Clear,160,2013-12-26 13:53:00
8:53 AM,30.9,26.1,82,30.45,6.0,SSW,3.5,-,N/A,,Haze,210,2013-12-26 14:53:00
9:53 AM,35.1,28.0,76,30.47,9.0,South,3.5,-,N/A,,Clear,190,2013-12-26 15:53:00
10:53 AM,37.9,28.0,68,30.45,10.0,SSE,4.6,-,N/A,,Clear,160,2013-12-26 16:53:00
11:53 AM,41.0,28.9,62,30.43,10.0,South,6.9,-,N/A,,Clear,190,2013-12-26 17:53:00
12:53 PM,44.1,27.0,51,30.40,10.0,SSW,10.4,-,N/A,,Clear,210,2013-12-26 18:53:00
1:53 PM,45.0,28.9,53,30.39,10.0,South,9.2,-,N/A,,Clear,180,2013-12-26 19:53:00
2:53 PM,45.0,28.9,53,30.38,10.0,South,8.1,-,N/A,,Clear,180,2013-12-26 20:53:00
3:53 PM,44.1,28.0,53,30.38,10.0,SSW,9.2,-,N/A,,Clear,200,2013-12-26 21:53:00
4:53 PM,41.0,28.0,60,30.38,10.0,South,5.8,-,N/A,,Clear,190,2013-12-26 22:53:00
5:53 PM,37.9,27.0,65,30.38,10.0,South,4.6,-,N/A,,Clear,180,2013-12-26 23:53:00
6:53 PM,36.0,27.0,70,30.38,10.0,South,5.8,-,N/A,,Clear,180,2013-12-27 00:53:00
7:53 PM,36.0,27.0,70,30.38,10.0,SSW,4.6,-,N/A,,Clear,200,2013-12-27 01:53:00
8:53 PM,35.1,27.0,72,30.38,10.0,Calm,Calm,-,N/A,,Clear,0,2013-12-27 02:53:00
9:53 PM,34.0,26.1,73,30.40,10.0,SSW,4.6,-,N/A,,Clear,210,2013-12-27 03:53:00
10:53 PM,30.0,25.0,82,30.41,10.0,Calm,Calm,-,N/A,,Clear,0,2013-12-27 04:53:00
11:53 PM,30.0,24.1,79,30.41,8.0,Calm,Calm,-,N/A,,Clear,0,2013-12-27 05:53:00